Burns, OR

3:58 AM PST on December 10, 2016 (GMT -0800)
Burns Municipal

Weather History for KBNO - June, 2013

Change the Weather History Date:

Tuesday, June 18, 2013

  Actual Average Record
Temperature  
Mean Temperature 58 °F 59 °F  
Max Temperature 71 °F 76 °F 97 °F (1940)
Min Temperature 45 °F 42 °F 23 °F (1996)
Degree Days  
Heating Degree Days 7 7  
Month to date heating degree days 95 156  
Since 1 June heating degree days 95 156  
Since 1 July heating degree days 7327 7626  
Cooling Degree Days 0 1  
Month to date cooling degree days 18 4  
Year to date cooling degree days 19 7  
Since 1 June cooling degree days 18 4  
Growing Degree Days 10 (Base 50)    
Moisture  
Dew Point 41 °F    
Average Humidity 49    
Maximum Humidity 71    
Minimum Humidity 26    
Precipitation  
Precipitation 0.00 in 0.02 in 0.20 in (1948)
Month to date precipitation T 0.54  
Year to date precipitation 2.54 6.00  
Sea Level Pressure  
Sea Level Pressure 29.80 in    
Wind  
Wind Speed 11 mph (WSW)    
Max Wind Speed 29 mph    
Max Gust Speed 37 mph    
Visibility 10 miles    
Events      
T = Trace of Precipitation, MM = Missing Value Source: NWS Daily Summary

Daily Weather History Graph

Daily Weather History Graph

Search for Another Location

Airport or City:

Trip Planner

Search our weather history database for the weather conditions in past years. The results will help you decide how hot, cold, wet, or windy it might be!

Date:

Astronomy

Jun. 18, 2013 Rise Set
Actual Time 5:14 AM PDT 8:40 PM PDT
Civil Twilight 4:38 AM PDT 9:16 PM PDT
Nautical Twilight 3:51 AM PDT 10:03 PM PDT
Astronomical Twilight 2:51 AM PDT 11:02 PM PDT
Moon 3:23 PM PDT (6/18) 1:33 AM PDT (6/18)
Length of Visible Light 16h 37m
Length of Day
15h 26m
Waxing Gibbous, 72% of the Moon is Illuminated
Jun 18
Waxing Gibbous
Jun 23
Full
Jun 29
Last Quarter
Jul 8
New
Jul 15
First Quarter

Hourly Weather History & Observations

Time (PDT) Temp. Dew Point Humidity Pressure Visibility Wind Dir Wind Speed Gust Speed Precip Events Conditions
12:53 AM 60.1 °F 43.0 °F 53% 29.82 in 10.0 mi West 10.4 mph - N/A   Clear
1:53 AM 57.0 °F 43.0 °F 59% 29.82 in 10.0 mi West 10.4 mph - N/A   Clear
2:53 AM 55.0 °F 43.0 °F 64% 29.82 in 10.0 mi West 9.2 mph - N/A   Clear
3:53 AM 53.1 °F 43.0 °F 69% 29.83 in 10.0 mi West 10.4 mph - N/A   Clear
4:53 AM 53.1 °F 43.0 °F 69% 29.83 in 10.0 mi West 10.4 mph - N/A   Clear
5:53 AM 54.0 °F 43.0 °F 66% 29.83 in 10.0 mi West 5.8 mph - N/A   Clear
6:53 AM 59.0 °F 44.1 °F 58% 29.85 in 10.0 mi West 5.8 mph - N/A   Clear
7:53 AM 59.0 °F 44.1 °F 58% 29.85 in 10.0 mi Calm Calm - N/A   Clear
8:53 AM 63.0 °F 45.0 °F 52% 29.83 in 10.0 mi Variable 4.6 mph - N/A   Clear
9:53 AM 64.9 °F 45.0 °F 48% 29.83 in 10.0 mi SSW 9.2 mph - N/A   Partly Cloudy
10:53 AM 68.0 °F 43.0 °F 40% 29.82 in 10.0 mi SSW 10.4 mph - N/A   Clear
11:53 AM 68.0 °F 42.1 °F 39% 29.81 in 10.0 mi South 6.9 mph - N/A   Clear
12:53 PM 70.0 °F 41.0 °F 35% 29.79 in 10.0 mi SSW 11.5 mph 16.1 mph N/A   Clear
1:53 PM 68.0 °F 41.0 °F 37% 29.79 in 10.0 mi West 10.4 mph - N/A   Clear
2:53 PM 68.0 °F 39.0 °F 35% 29.78 in 10.0 mi South 9.2 mph - N/A   Mostly Cloudy
3:53 PM 68.0 °F 36.0 °F 31% 29.76 in 10.0 mi SSW 6.9 mph - N/A   Clear
4:53 PM 66.9 °F 37.9 °F 34% 29.75 in 10.0 mi SSW 8.1 mph - N/A   Clear
5:53 PM 68.0 °F 32.0 °F 26% 29.73 in 10.0 mi South 10.4 mph - N/A   Clear
6:49 PM 62.6 °F 44.6 °F 52% 29.79 in 10.0 mi WNW 24.2 mph 33.4 mph N/A   Scattered Clouds
6:53 PM 63.0 °F 44.1 °F 50% 29.71 in 10.0 mi WNW 26.5 mph 36.8 mph N/A   Partly Cloudy
7:53 PM 57.0 °F 39.0 °F 51% 29.74 in 10.0 mi WNW 23.0 mph 28.8 mph N/A   Clear
8:53 PM 55.0 °F 39.0 °F 55% 29.75 in 10.0 mi NW 19.6 mph 28.8 mph N/A   Clear
9:53 PM 52.0 °F 39.9 °F 63% 29.79 in 10.0 mi WNW 17.3 mph 25.3 mph N/A   Overcast
10:53 PM 50.0 °F 39.9 °F 68% 29.81 in 10.0 mi WNW 9.2 mph - N/A   Mostly Cloudy
11:53 PM 48.0 °F 39.9 °F 74% 29.79 in 10.0 mi West 11.5 mph - N/A   Scattered Clouds